Location: Cuiry
(49.3858°N, 3.7708°E)
Time: 00:12:19
(UTC+00:00)

UNK - Pass Details

Date: 12 January 2026
Orbit: 654 x 673 km, 98.4° (Epoch: 18 February)

Event Time Altitude Azimuth Distance (km) Brightness Sun altitude
Rises 17:40:45 0° 10° (N) 2,994 6.8 -14.2°
Reaches altitude 10° 17:43:01 10° 6° (N) 2,077 6.0 -14.6°
Maximum altitude 17:47:25 53° 290° (WNW) 811 4.4 -15.3°
Drops below altitude 10° 17:51:47 10° 214° (SW) 2,061 6.9 -15.9°
Sets 17:54:01 0° 210° (SSW) 2,968 7.7 -16.3°
